www.pogodaiklimat.ru

Погода и климат >> Архив погоды >> Боливия >> Камири


ПОГОДА в Камири

  • Прогноз погоды в Камири
  • Монитор погоды в Камири

АРХИВ ПОГОДЫ в Камири

Время (UTC), дата Ветер
(напр.,м/с)
 
Видим.   Явления Облачность Т
(С)
Тd
(С)
f
(%)
Тe
(С)
Тes
(С)
Комфортность P
(гПа)
Po
(гПа)
Тmin
(С)
Tmax
(С)
R
(мм)
R24
(мм)
S
(см)
15 13.08 Ю 3 15 км дым 10/8 1080 м
[Sc As op]
+15.0 +6.7 58 +15 +15 1032.4 939.2
18 13.08 Ю 3 15 км дым 10/5 1080 м
[Cu Sc As op]
+18.0 +7.2 49 +18 +19 1028.3 936.9
21 13.08 Ю 3 15 км дым 10/0 2000 м
[As op]
+16.4 +6.5 52 +16 +17 1027.5 936.1 +18.0
12 14.08 Ю 2 20 км 10/0 2000 м
[As op]
+12.0 +2.3 51 +11 +12 1029.4 937.7 +11.8
15 14.08 Ю 2 20 км 9/0 2000 м
[Ac trans]
+14.3 +2.8 46 +14 +21 1030.5 938.2
18 14.08 Ю 2 20 км 8/0 2000 м
[Ac trans]
+18.1 +4.8 41 +19 +25 1024.8 934.6
21 14.08 С 2 20 км ясно +19.3 +4.5 38 +20 +21 1021.5 931.5 +19.5
12 15.08 штиль 0 20 км 8/0 2000 м
[Ac trans]
+4.0 +3.3 95 +3 +5 1023.7 930.2 +3.8
15 15.08 штиль 0 20 км ясно +16.3 +6.3 52 +16 +35 опасность
простуды
1018.6 929.8
18 15.08 С 3 20 км ясно +27.3 +8.8 31 +27 +37 жарко 1013.0 925.5
21 15.08 С 3 20 км 8/0
[Cs]
+26.0 +8.7 33 +26 +27 жарко 1012.5 924.4 +27.6
12 16.08 штиль 0 20 км дым ясно +7.0 +6.2 95 +6 +9 1018.9 925.0 +6.6
15 16.08 С 3 20 км дым ясно +24.6 +10.8 42 +26 +37 жарко 1013.1 924.0
18 16.08 С 4 20 км дым ясно +29.0 +9.8 30 +29 +37 жарко 1007.4 921.2
21 16.08 С 5 20 км дым ясно +29.6 +10.3 30 +30 +30 жарко 1005.2 919.1 +32.2
12 17.08 штиль 0 20 км дым ясно +9.3 +8.7 96 +8 +12 1010.5 918.6 +7.5
15 17.08 штиль 0 20 км дым ясно +24.2 +12.7 49 +26 +45 жарко 1005.3 918.3
18 17.08 С 3 20 км дым ясно +32.2 +11.2 28 +32 +42 жарко 1001.5 915.8
21 17.08 штиль 0 20 км дым ясно +31.8 +14.4 35 +34 +35 душно 998.0 913.8 +33.2
12 18.08 штиль 0 20 км дым 3/0 2000 м
[Ac trans]
+12.0 +10.8 92 +11 +14 1016.8 925.8 +11.3
15 18.08 Ю 2 20 км дым 9/0 2000 м
[Ac trans]
+21.7 +11.7 53 +24 +30 комфорт 1016.9 927.1
18 18.08 Ю 2 20 км дым 9/0 2000 м
[Ac trans]
+23.2 +11.8 49 +26 +31 жарко 1011.8 925.4
21 18.08 Ю 2 20 км дым 10/0 2000 м
[As op]
+22.2 +11.6 51 +24 +25 комфорт 1011.8 925.1 +23.4
12 19.08 штиль 0 20 км дым 10/0 2000 м
[As op]
+14.3 +6.0 57 +14 +15 1022.8 931.4 +14.1
15 19.08 Ю 2 20 км 9/0 2000 м
[]
+17.0 +5.5 47 +17 +25 1020.8 931.2
18 19.08 С 2 20 км дым 10/0 2000 м
[As op]
+19.2 +6.6 44 +20 +23 1018.0 929.0
21 19.08 Ю 2 20 км дым 10/0 2000 м
[As op]
+19.7 +6.4 42 +21 +21 комфорт 1015.8 927.4 +20.2

 

Местоположение метеостанции Камири (Боливия): широта -20.00 долгота -63.53 высота над уровнем моря 798 м.

В архиве по умолчанию представлена погода в Камири за последнюю неделю. Архивные данные за месяц целиком и за предыдущие месяцы, начиная с января 2011 года, Вы можете получить, выбрав интересующий диапазон дат из раскрывающегося списка и нажав кнопку "Ввод!".


*Определитесь, кто Вы:
робот инопланетянин человек

Внимание! Время в таблицах - всемирное. Для получения местного времени необходимо прибавить поправку, которая равна -4 ч.

Смотрите также архив погоды в соседних городах и на ближайших метеорологических станциях:

Погода в Монтеагудо (Боливия) (47 км)
Погода в Вилья-Монтесе (Боливия) (139 км)
Погода в Валье Гранде (Боливия) (181 км)
Погода в Тарихе (Боливия) (211 км)
Погода в Сукре (Боливия) (216 км)
Погода в Якуибе (Боливия) (217 км)
Погода в Потоси (Боливия) (236 км)
Погода в Санта-Крусе (Боливия) (247 км)
Погода в Виру-Виру (Боливия) (267 км)
Погода в Тартагале (Аргентина) (293 км)

Пояснения к столбцам:

Ветер - указаны скорость ветра в м/с - средняя за 10 мин, порывы в срок и между сроками (в фигурных скобках) и направление, откуда дует ветер: С - северный, СВ - северо-восточный, В - восточный, ЮВ - юго-восточный, Ю - южный, ЮЗ - юго-западный, З - западный, СЗ - северо-западный.
Видимость - горизонтальная дальность видимости в метрах или километрах. При видимости от 1 до 10 км при отсутствии осадков обычно наблюдается дымка, при ухудшении видимости до 1 км и менее - туман. В сухую погоду видимость может ухудшаться дымом, пылью или мглою.
Явления - указаны атмосферные явления, наблюдавшиеся в срок или в последний час перед сроком; фигурными скобками обозначены явления, наблюдавшиеся между сроками (за 1-3 часа до срока); квадратными скобками обозначены град или гололедные отложения с указанием их диаметра в мм.
Облачность - указаны через наклонную черту общая и нижняя облачность в баллах и высота нижней границы облаков в метрах; квадратными скобками обозначены формы облаков: Ci - перистые, Cs - перисто-слоистые, Cc - перисто-кучевые, Ac - высококучевые, As - высокослоистые, Sc - слоисто-кучевые, Ns - слоисто-дождевые, Cu - кучевые, Cb - кучево-дождевые. Подробнее классификацию облаков см. в Атласе облаков (PDF).
T - Температура воздуха - температура, измеренная на высоте 2 м над землей.
Td - Температура точки росы - температура, при понижении до которой содержащийся в воздухе водяной пар достигнет насыщения.
f - Относительная влажность воздуха - влажноcть воздуха, измеренная на высоте 2 м над землей.
Te - Эффективная температура - температура, которую ощущает одетый по сезону человек в тени. Характеристика душности погоды. При расчете учитывается влияние влажности воздуха и скорости ветра на теплоощущения человека.
Tes - Эффективная температура на солнце - температура, которую ощущает человек, с поправкой на солнечный нагрев. Характеристика знойности погоды. Зависит от высоты солнца над горизонтом, облачности и скорости ветра. Ночью, в пасмурную погоду, а также при ветре 12 м/с и более поправка равна нулю.
P - Атмосферное давление - приведенное к уровню моря атмосферное давление.
Po - Атмосферное давление - измеренное на уровне метеостанции атмосферное давление.
Tmin - Минимальная температура - минимум температуры воздуха на высоте 2 м над землей.
Tmax - Максимальная температура - максимум температуры воздуха на высоте 2 м над землей.
R - Количество осадков - Количество выпавших осадков за период времени, мм. При наведении курсора мыши на число - период времени, за который выпало указанное количество осадков.
R24 - Количество осадков - Количество выпавших осадков за 24 часа, мм.
S - Снежный покров - Высота снежного покрова, см. При наведении курсора мыши на число - состояние снежного покрова и степень покрытия местности в баллах.